Location: Aragoneses
(41.0275°N, 4.3847°W)
Time: 16:41:29
(UTC+00:00)

NOAA 6 - Pass Details

Date: 11 December 2025
Orbit: 767 x 781 km, 98.6° (Epoch: 16 January)

Event Time Altitude Azimuth Distance (km) Brightness Sun altitude
Rises 19:02:10 0° 164° (SSE) 3,234 7.2 -24.2°
Reaches altitude 10° 19:04:28 10° 164° (SSE) 2,309 6.4 -24.7°
Maximum altitude 19:09:34 89° 80° (E) 776 3.9 -25.6°
Drops below altitude 10° 19:14:41 10° 347° (NNW) 2,318 6.5 -26.6°
Sets 19:17:00 0° 347° (NNW) 3,247 7.3 -27.0°
